| time (UTC) | temp C | wind direction | speed KPH | gust KPH | rain 1hr cm | rain 24hr cm | rain mn cm | humidity % | barometer mb |
| 20260510093502 | 13 | 300 | 17.7 | 0.0 | 0.00 | 0.00 | 0.00 | 94 | 1015.0 |
| 20260510090502 | 13 | 300 | 17.7 | 0.0 | 0.00 | 0.00 | 0.00 | 94 | 1015.0 |
| 20260510083502 | 13 | 300 | 17.7 | 0.0 | 0.00 | 0.00 | 0.00 | 94 | 1015.0 |
| 20260510080503 | 13 | 300 | 20.9 | 0.0 | 0.00 | 0.00 | 0.00 | 88 | 1015.0 |
| 20260510073503 | 13 | 300 | 17.7 | 0.0 | 0.00 | 0.00 | 0.00 | 94 | 1015.0 |
| 20260510070502 | 12 | 290 | 17.7 | 0.0 | 0.00 | 0.00 | 0.00 | 94 | 1015.0 |
| 20260510063502 | 12 | 290 | 20.9 | 0.0 | 0.00 | 0.00 | 0.00 | 94 | 1015.0 |
| 20260510060502 | 12 | 300 | 16.1 | 0.0 | 0.00 | 0.00 | 0.00 | ||
| 20260510053502 | 12 | 300 | 17.7 | 0.0 | 0.00 | 0.00 | 0.00 | 94 | 1015.0 |
| 20260510050502 | 12 | 310 | 17.7 | 0.0 | 0.00 | 0.00 | 0.00 | 94 | 1015.0 |
| 20260510043502 | 12 | 320 | 24.1 | 0.0 | 0.00 | 0.00 | 0.00 | 94 | 1015.0 |
| 20260510040502 | 12 | 320 | 24.1 | 0.0 | 0.00 | 0.00 | 0.00 | 94 | 1015.0 |
| 20260510033502 | 12 | 320 | 22.5 | 0.0 | 0.00 | 0.00 | 0.00 | 94 | 1015.0 |
| 20260510030501 | 12 | 330 | 24.1 | 0.0 | 0.00 | 0.00 | 0.00 | 94 | 1014.0 |
| 20260510023503 | 12 | 320 | 22.5 | 0.0 | 0.00 | 0.00 | 0.00 | 94 | 1014.0 |
| 20260510020502 | 12 | 330 | 20.9 | 0.0 | 0.00 | 0.00 | 0.00 | 100 | 1014.0 |
| 20260510013503 | 12 | 330 | 20.9 | 0.0 | 0.00 | 0.00 | 0.00 | 100 | 1014.0 |
| 20260510010503 | 12 | 330 | 17.7 | 0.0 | 0.00 | 0.00 | 0.00 | 100 | 1015.0 |
| 20260510003502 | 12 | 320 | 14.5 | 0.0 | 0.00 | 0.00 | 0.00 | 100 | 1015.0 |
| 20260510000503 | 12 | 330 | 17.7 | 0.0 | 0.00 | 0.00 | 0.00 | 100 | 1015.0 |
| 20260509233502 | 13 | 320 | 17.7 | 0.0 | 0.00 | 0.00 | 0.00 | 94 | 1015.0 |
| 20260509230502 | 13 | 330 | 17.7 | 0.0 | 0.00 | 0.00 | 0.00 | 94 | 1015.0 |
| 20260509223503 | 13 | 330 | 17.7 | 0.0 | 0.00 | 0.00 | 0.00 | 94 | 1016.0 |
| 20260509220502 | 13 | 330 | 17.7 | 0.0 | 0.00 | 0.00 | 0.00 | 94 | 1016.0 |
| 20260509213502 | 13 | 320 | 12.9 | 0.0 | 0.00 | 0.00 | 0.00 | 94 | 1016.0 |
| 20260509210503 | 13 | 330 | 14.5 | 0.0 | 0.00 | 0.00 | 0.00 | 94 | 1016.0 |
| 20260509203502 | 13 | 320 | 9.7 | 0.0 | 0.00 | 0.00 | 0.00 | 94 | 1016.0 |
| 20260509200503 | 15 | 330 | 16.1 | 0.0 | 0.00 | 0.00 | 0.00 | 88 | 1016.0 |
| 20260509193503 | 15 | 330 | 16.1 | 0.0 | 0.00 | 0.00 | 0.00 | 88 | 1016.0 |
| 20260509190502 | 15 | 330 | 14.5 | 0.0 | 0.00 | 0.00 | 0.00 | 94 | 1016.0 |
| 20260509183502 | 15 | 320 | 11.3 | 0.0 | 0.00 | 0.00 | 0.00 | 94 | 1016.0 |
| 20260509180503 | 17 | 10 | 8.0 | 0.0 | 0.00 | 0.00 | 0.00 | 88 | 1015.0 |
| 20260509173503 | 17 | 20 | 9.7 | 0.0 | 0.00 | 0.00 | 0.00 | 83 | 1015.0 |
| 20260509170501 | 17 | 20 | 9.7 | 0.0 | 0.00 | 0.00 | 0.00 | 88 | 1015.0 |
| 20260509163503 | 17 | 30 | 11.3 | 0.0 | 0.00 | 0.00 | 0.00 | 83 | 1015.0 |
| 20260509160502 | 17 | 30 | 11.3 | 0.0 | 0.00 | 0.00 | 0.00 | 83 | 1015.0 |
| 20260509153502 | 17 | 20 | 11.3 | 0.0 | 0.00 | 0.00 | 0.00 | 78 | 1015.0 |
| 20260509150502 | 17 | 20 | 9.7 | 0.0 | 0.00 | 0.00 | 0.00 | 78 | |
| 20260509143502 | 17 | 40 | 9.7 | 0.0 | 0.00 | 0.00 | 0.00 | 78 | 1015.0 |
| 20260509140502 | 18 | 40 | 11.3 | 0.0 | 0.00 | 0.00 | 0.00 | 73 | 1015.0 |
| 20260509133502 | 17 | 40 | 11.3 | 0.0 | 0.00 | 0.00 | 0.00 | 78 | 1015.0 |
| 20260509130502 | 17 | 50 | 11.3 | 0.0 | 0.00 | 0.00 | 0.00 | 78 | 1016.0 |
| 20260509123502 | 17 | 80 | 14.5 | 0.0 | 0.00 | 0.00 | 0.00 | 78 | 1016.0 |
| 20260509120502 | 17 | 70 | 11.3 | 0.0 | 0.00 | 0.00 | 0.00 | 78 | 1016.0 |
| 20260509113502 | 17 | 80 | 12.9 | 0.0 | 0.00 | 0.00 | 0.00 | 78 | 1016.0 |
| 20260509110503 | 17 | 100 | 16.1 | 0.0 | 0.00 | 0.00 | 0.00 | 83 | 1016.0 |
| 20260509103502 | 17 | 100 | 12.9 | 0.0 | 0.00 | 0.00 | 0.00 | 83 | 1016.0 |
| 20260509100502 | 17 | 80 | 12.9 | 0.0 | 0.00 | 0.00 | 0.00 | 83 | 1017.0 |